Showing default

OPS 8464 (TRANSIT 5B-7), 1514

Orbit data source: Space-Track

OPS 8464 (TRANSIT 5B-7), 1514 is a payload satellite owned by USN BuWeps (US) in LEO that was launched on Fri, 13 Aug 1965 UTC via a THOR ABLESTAR launch vehicle from the Air Force Western Test Range (AFWTR). Payload-class satellites include a variety of spacecraft equipped with specific instruments for various scientific and technological missions. These include communications satellites like Starlink; space stations such as the ISS; scientific satellites like the Hubble; Earth observation satellites from companies like Planet Labs, Umbra, and HawkEye 360; GPS; miniature CubeSats for education and research; and military/defense satellites.

Loading next visibility...
Identifier
1514, 1965-065F
Orbit
LEO
Country
Flag of USUS
Related business
Manufacturer
NAFI
Mission
Spacecraft
Bus & Motor
TRANSIT 5, Unknown motor
Mass
~54 kg wet, ~54 kg dry
Launch date (UTC)
1965-08-13 (61 years ago)
Launch vehicle
THOR ABLESTAR
Launch site
Air Force Western Test Range (AFWTR)
Object type
Payload
Rocket body
Debris
Shape & HBR
Unknown
Radar Cross Section
Large (>1 m²)

Expand to show TLE details & history
Last TLE update: 13 hours ago

TLE from 13 hours ago
0 OPS 8464 (TRANSIT 5B-7)
1 01514U 65065F   26061.54006906  .00000094  00000-0  16436-3 0  9994
2 01514  89.9860 227.9485 0071836 101.0699 328.9960 13.35350056947032
Epoch: 2026-03-02T12:57Z
TLE epoch observation values (Epoch: 2026-03-02T12:57:41.966Z)
Latitude
69.70939°
Longitude
-126.77071°
Altitude
1,092.679 km
Speed
7.335 km/s
True Right ascension
15h 11m 56s
True Declination
69° 36' 08"
Sunlit
Object was in daylight at epoch
Visualization orbit readout
Latitude
Unknown
Longitude
Unknown
Altitude
Unknown
Speed
Unknown
Apparent Right ascension
Unknown
Apparent Declination
Unknown
Sunlit
N/A
Visualization observer readout
Local Sidereal Time
05:32:25
Azimuth
Unknown
Elevation
Unknown
Doppler factor
Unknown
Orbital elements
Apogee altitude
1,177.612 km
Perigee altitude
1,069.832 km
Semi-major axis
7,501.859 km
Eccentricity
0.00718
Inclination
89.986°
RAAN
227.9485°
Arg. of periapsis
101.0699°
True anomaly
328.5687°
Mean anomaly
328.996°
Eccentric anomaly
328.78268°
Mean motion
3.34033 °/min
Orbital period
107.77 mins
BSTAR
0.00016436
Loading maneuver chart data...
Computing Atmospheric mass density...
Loading historical data...
Loading historical data...
Loading historical data...
Loading historical data...
Loading historical data...
Loading historical data...
Loading historical data...

Documentation

Showing up to 5 results
|